Content
SEND FEEDBACK

Daily
Averages
Monthly
Summary
United States of America

ELFRIDA, ARIZONA


Home > North America > United States > Arizona
Elevation: 3970 feet     Latitude: 31 21N     Longitude: 109 35W

WEATHER
 
SELECT A DAY
Number of Records: 170,155;   Date Range: 1/1/95 - 7/27/14
 
SHARE

PRINT THIS DATA

[ ← Previous Day ]
WEATHER ALMANAC - JANUARY 31, 2013
[ Next Day → ]
[ °C ]   °F
Weather ElementAverageHighLow
Temperature40.6 °F57 °F (3:56 pm)25 °F (6:56 am)
Dewpoint25.3 °F28.9 °F (9:56 am)21.9 °F (6:56 am)
Humidity58.9 %89 % (2:56 am)28 % (3:56 pm)
Barometer30.19 in30.25 in (6:56 am)30.12 in (2:56 pm)
Wind Speed5.4 mph10.4 mph (2:56 pm)
Weather ElementAverage
Visibility10 mi
Wind DirectionSSE (170 °)

Weather ElementTotal
Precipitation---
Heating Degree Days24 (Base 65)
Averaged from 23 records on January 31, 2013
WEATHER CONDITIONS BREAKOUT
WIND DIRECTION BREAKOUT
WEATHER BY HOUR - JANUARY 31, 2013
[ °C ]   °F
Local TimeTemperatureDewpointHumidityBarometerVisibilityWind DirectionWind SpeedGust SpeedPrecipitationEventsConditions
1:56 AM28.9 °F24.1 °F82 %30.23 in10.0 miNNE (30°)4.6 mphClear
2:56 AM27.0 °F24.1 °F89 %30.22 in10.0 miCalmClear
3:56 AM30.0 °F23.0 °F75 %30.20 in10.0 miNorth (360°)9.2 mphClear
4:56 AM28.9 °F23.0 °F78 %30.19 in10.0 miNNW (330°)6.9 mphClear
5:56 AM26.1 °F23.0 °F88 %30.22 in10.0 miNorth (360°)5.8 mphClear
6:56 AM25.0 °F21.9 °F88 %30.25 in10.0 miCalmClear
7:56 AM28.9 °F25.0 °F85 %30.25 in10.0 miCalmClear
8:56 AM35.1 °F28.0 °F76 %30.24 in10.0 miCalmClear
9:56 AM39.9 °F28.9 °F65 %30.23 in10.0 miWNW (290°)3.5 mphClear
10:56 AM44.1 °F26.1 °F49 %30.22 in10.0 miNorth (350°)8.1 mphClear
11:56 AM48.9 °F24.1 °F38 %30.19 in10.0 miCalmClear
12:56 PM51.8 °F24.8 °F35 %30.21 in10.0 miCalmClear
1:56 PM55.9 °F24.1 °F29 %30.13 in10.0 miNorth (350°)5.8 mphClear
2:56 PM55.9 °F24.1 °F29 %30.12 in10.0 miNorth (350°)10.4 mphClear
3:56 PM57.0 °F24.1 °F28 %30.12 in10.0 miNorth (350°)9.2 mphClear
4:56 PM57.0 °F25.0 °F29 %30.12 in10.0 miNorth (350°)8.1 mphClear
5:56 PM48.9 °F28.0 °F44 %30.14 in10.0 miNorth (360°)9.2 mphClear
6:56 PM46.4 °F28.4 °F50 %30.18 in10.0 miNNE (20°)8.1 mphClear
7:56 PM44.1 °F28.9 °F55 %30.18 in10.0 miNNE (30°)9.2 mphClear
8:56 PM39.9 °F28.0 °F63 %30.17 in10.0 miNNE (30°)10.4 mphClear
9:56 PM39.0 °F26.1 °F60 %30.17 in10.0 miNorth (10°)8.1 mphClear
10:56 PM41.0 °F25.0 °F53 %30.17 in10.0 miNNW (340°)8.1 mphClear
11:56 PM34.0 °F24.1 °F67 %30.17 in10.0 miCalmClear
Hourly data recorded from KDUG, located miles away from Elfrida, Arizona







STORIES FROM OUR PARTNERS